EW4931 Weather Reports


Display with metric or nautical units.
time (UTC)temp
F
wind
direction
speed
MPH
gust
MPH
rain 1hr
in
rain 24hr
in
rain mn
in
humidity
%
barometer
mb
20260504234402 48 257 4.0 12.0 0.00 0.00 0.00 59 1002.6
20260504234136 48 268 4.0 10.0 0.00 0.00 0.00 59 1002.6
20260504233404 48 271 4.0 10.0 0.00 0.00 0.00 60 1002.6
20260504232903 48 278 4.0 9.0 0.00 0.00 0.00 59 1002.5
20260504232403 48 290 4.0 10.0 0.00 0.00 0.00 59 1002.6
20260504231903 48 257 5.0 10.0 0.00 0.00 0.00 60 1002.7
20260504231840 48 240 4.0 7.0 0.00 0.00 0.00 61 1002.7
20260504230902 48 238 3.0 7.0 0.00 0.00 0.00 62 1002.7
20260504230403 48 252 4.0 6.0 0.00 0.00 0.00 62 1002.7
20260504225904 48 254 3.0 6.0 0.00 0.00 0.00 63 1002.7
20260504225404 48 251 4.0 6.0 0.00 0.00 0.00 63 1002.7
20260504224903 48 276 3.0 6.0 0.00 0.00 0.00 62 1002.8
20260504224843 48 241 2.0 4.0 0.00 0.00 0.00 62 1002.8
20260504223903 49 255 3.0 4.0 0.00 0.00 0.00 60 1002.9
20260504223403 49 254 2.0 4.0 0.00 0.00 0.00 59 1003.0
20260504222902 49 243 3.0 5.0 0.00 0.00 0.00 59 1003.0
20260504222403 49 251 3.0 6.0 0.00 0.00 0.00 59 1003.1
20260504222122 49 285 2.0 6.0 0.00 0.00 0.00 58 1003.0
20260504221403 50 262 4.0 6.0 0.00 0.00 0.00 58 1003.1
20260504220903 50 269 4.0 10.0 0.00 0.00 0.00 58 1003.1
20260504220403 50 241 4.0 10.0 0.00 0.00 0.00 59 1003.1
20260504220122 50 265 4.0 6.0 0.00 0.00 0.00 58 1003.2
20260504215402 49 266 4.0 7.0 0.00 0.00 0.00 60 1003.2
20260504215131 49 257 5.0 7.0 0.00 0.00 0.00 60 1003.2
20260504214402 49 259 3.0 5.0 0.00 0.00 0.00 60 1003.2
20260504213902 50 266 4.0 5.0 0.00 0.00 0.00 60 1003.2
20260504213402 50 261 3.0 5.0 0.00 0.00 0.00 60 1003.2
20260504212903 50 252 2.0 7.0 0.00 0.00 0.00 60 1003.3
20260504212402 50 248 3.0 7.0 0.00 0.00 0.00 60 1003.2
20260504211902 50 306 3.0 6.0 0.00 0.00 0.00 60 1003.3
20260504211403 51 265 2.0 6.0 0.00 0.00 0.00 60 1003.3
20260504210903 51 279 2.0 5.0 0.00 0.00 0.00 59 1003.4
20260504210402 51 266 3.0 4.0 0.00 0.00 0.00 60 1003.3
20260504210128 51 285 2.0 5.0 0.00 0.00 0.00 60 1003.3
20260504205402 51 281 3.0 11.0 0.00 0.00 0.00 60 1003.4
20260504204902 51 259 5.0 11.0 0.00 0.00 0.00 61 1003.3
20260504204402 51 283 3.0 7.0 0.00 0.00 0.00 62 1003.3
20260504204344 51 283 3.0 7.0 0.00 0.00 0.00 63 1003.3
20260504203844 51 230 3.0 7.0 0.00 0.00 0.00 64 1003.3
20260504202902 51 269 2.0 5.0 0.00 0.00 0.00 64 1003.3
20260504202402 51 266 3.0 5.0 0.00 0.00 0.00 64 1003.3
20260504201904 51 261 2.0 5.0 0.00 0.00 0.00 64 1003.3
20260504201404 51 309 3.0 5.0 0.00 0.00 0.00 64 1003.2
20260504200903 51 248 3.0 5.0 0.00 0.00 0.00 65 1003.3
20260504200852 51 303 2.0 5.0 0.00 0.00 0.00 65 1003.2
20260504195902 51 257 3.0 5.0 0.00 0.00 0.00 64 1003.3
20260504195403 52 265 2.0 4.0 0.00 0.00 0.00 64 1003.2
20260504194903 52 259 2.0 4.0 0.00 0.00 0.00 64 1003.2
20260504194405 52 248 2.0 4.0 0.00 0.00 0.00 65 1003.2
20260504193905 52 275 2.0 4.0 0.00 0.00 0.00 64 1003.1
20260504193403 52 265 2.0 4.0 0.00 0.00 0.00 64 1003.1
20260504192904 52 254 1.0 6.0 0.00 0.00 0.00 64 1003.2
20260504192404 53 261 2.0 6.0 0.00 0.00 0.00 64 1003.1
20260504191903 53 268 2.0 4.0 0.00 0.00 0.00 64 1003.1
20260504191405 53 272 2.0 3.0 0.00 0.00 0.00 64 1003.0
20260504190904 53 305 2.0 6.0 0.00 0.00 0.00 63 1003.0
20260504190405 54 281 4.0 6.0 0.00 0.00 0.00 63 1003.1
20260504185904 54 274 3.0 5.0 0.00 0.00 0.00 63 1003.1
20260504185403 54 269 2.0 6.0 0.00 0.00 0.00 63 1003.1
20260504185133 54 266 4.0 6.0 0.00 0.00 0.00 63 1003.1
20260504184404 54 276 2.0 6.0 0.00 0.00 0.00 64 1003.0
20260504183904 54 286 2.0 6.0 0.00 0.00 0.00 63 1003.1
20260504183403 55 298 2.0 7.0 0.00 0.00 0.00 63 1003.1
20260504183129 55 275 5.0 7.0 0.00 0.00 0.00 63 1003.1
20260504182403 55 276 3.0 7.0 0.00 0.00 0.00 62 1003.0
20260504181903 55 285 3.0 7.0 0.00 0.00 0.00 62 1003.1
20260504181403 55 296 4.0 5.0 0.00 0.00 0.00 62 1003.0
20260504180903 55 274 3.0 10.0 0.00 0.00 0.00 62 1003.0
20260504180403 56 296 5.0 10.0 0.00 0.00 0.00 61 1003.0
20260504180123 56 303 4.0 9.0 0.00 0.00 0.00 62 1002.9
20260504175403 55 319 6.0 10.0 0.00 0.00 0.00 62 1002.9
20260504174903 55 300 4.0 10.0 0.00 0.00 0.00 61 1002.9
20260504174403 56 296 4.0 11.0 0.00 0.00 0.00 61 1002.9
20260504173904 56 285 5.0 13.0 0.00 0.00 0.00 60 1002.8
20260504173403 56 288 6.0 13.0 0.00 0.00 0.00 59 1002.8
20260504172903 56 275 5.0 10.0 0.00 0.00 0.00 59 1002.8
20260504172403 57 303 7.0 13.0 0.00 0.00 0.00 58 1002.8
20260504171903 57 310 6.0 16.0 0.00 0.00 0.00 57 1002.8
20260504171403 57 289 11.0 16.0 0.00 0.00 0.00 58 1002.7
20260504170904 57 298 7.0 15.0 0.00 0.00 0.00 57 1002.7
20260504170403 57 258 7.0 16.0 0.00 0.00 0.00 56 1002.7
20260504160404 59 238 5.0 12.0 0.00 0.00 0.00 65 1002.0
20260504150903 58 195 4.0 10.0 0.00 0.00 0.00 74 1001.6
20260504150403 58 248 5.0 11.0 0.00 0.00 0.00 74 1001.6
20260504140903 57 202 6.0 10.0 0.00 0.00 0.00 75 1001.9
20260504140621 57 265 5.0 10.0 0.00 0.00 0.00 76 1001.9
20260504130403 56 183 7.0 10.0 0.00 0.00 0.00 79 1002.3
20260504110403 52 269 4.0 9.0 0.00 0.00 0.00 85 1003.1
20260504110128 52 266 6.0 9.0 0.00 0.00 0.00 86 1003.1
20260504100403 50 265 2.0 5.0 0.00 0.00 0.00 90 1003.2
20260504081403 45 180 2.0 3.0 0.00 0.00 0.00 93 1003.4
20260504080903 44 164 2.0 4.0 0.00 0.00 0.00 93 1003.4
20260504080403 44 179 2.0 4.0 0.00 0.00 0.00 93 1003.4
20260504050404 40 182 2.0 3.0 0.00 0.00 0.00 89 1004.9
20260504050124 40 188 1.0 4.0 0.00 0.00 0.00 89 1005.0
20260504045403 40 199 1.0 4.0 0.00 0.00 0.00 89 1005.0
20260504044903 40 203 2.0 4.0 0.00 0.00 0.00 88 1005.1
20260504044404 40 185 2.0 4.0 0.00 0.00 0.00 88 1005.1
20260504043904 40 164 2.0 4.0 0.00 0.00 0.00 87 1005.1
20260504043404 41 164 2.0 2.0 0.00 0.00 0.00 87 1005.2
20260504043128 41 164 0.0 0.0 0.00 0.00 0.00 86 1005.3
20260504042404 41 164 0.0 0.0 0.00 0.00 0.00 85 1005.3
20260504041903 41 164 0.0 0.0 0.00 0.00 0.00 84 1005.3
20260504041403 41 164 0.0 0.0 0.00 0.00 0.00 83 1005.2
20260504040903 41 164 0.0 0.0 0.00 0.00 0.00 83 1005.1
20260504040403 42 164 0.0 0.0 0.00 0.00 0.00 81 1005.2
20260504035903 42 164 0.0 1.0 0.00 0.00 0.00 81 1005.2
20260504035404 42 164 0.0 3.0 0.00 0.00 0.00 81 1005.0
20260504034903 42 164 1.0 3.0 0.00 0.00 0.00 80 1005.1
20260504034403 42 164 1.0 2.0 0.00 0.00 0.00 80 1005.2
20260504034123 42 164 0.0 2.0 0.00 0.00 0.00 80 1005.3
20260504033403 42 164 2.0 2.0 0.00 0.00 0.00 80 1005.3
20260504032903 42 164 0.0 0.0 0.00 0.00 0.00 80 1005.4
20260504032621 42 164 0.0 0.0 0.00 0.00 0.00 79 1005.5
20260504031903 42 164 0.0 0.0 0.00 0.00 0.00 79 1005.5
20260504031403 42 164 0.0 0.0 0.00 0.00 0.00 78 1005.6
20260504030903 42 164 0.0 2.0 0.00 0.00 0.00 77 1005.7
20260504030403 42 164 0.0 2.0 0.00 0.00 0.00 77 1005.7
20260504025903 42 164 1.0 1.0 0.00 0.00 0.00 77 1005.8
20260504025403 42 164 0.0 1.0 0.00 0.00 0.00 77 1006.0
20260504024902 42 164 0.0 2.0 0.00 0.00 0.00 76 1006.1
20260504024623 42 164 0.0 2.0 0.00 0.00 0.00 76 1006.2
20260504023904 42 164 0.0 1.0 0.00 0.00 0.00 76 1006.4
20260504023404 42 164 0.0 1.0 0.00 0.00 0.00 76 1006.4
20260504022903 42 164 0.0 2.0 0.00 0.00 0.00 76 1006.5
20260504022403 42 164 2.0 2.0 0.00 0.00 0.00 76 1006.4
20260504022126 42 164 0.0 0.0 0.00 0.00 0.00 77 1006.3
20260504021404 42 164 0.0 0.0 0.00 0.00 0.00 76 1006.2
20260504020903 42 164 0.0 0.0 0.00 0.00 0.00 77 1006.3
20260504020403 42 164 0.0 1.0 0.00 0.00 0.00 76 1006.3
20260504015903 42 164 0.0 2.0 0.00 0.00 0.00 76 1006.4
20260504015403 42 164 0.0 2.0 0.00 0.00 0.00 76 1006.5
20260504014903 42 164 1.0 3.0 0.00 0.00 0.00 76 1006.5
20260504014404 42 164 1.0 3.0 0.00 0.00 0.00 76 1006.5
20260504013903 42 164 1.0 3.0 0.00 0.00 0.00 76 1006.6
20260504013403 42 164 2.0 3.0 0.00 0.00 0.00 76 1006.7
20260504012857 42 164 2.0 3.0 0.00 0.00 0.00 75 1006.6
20260504012350 42 164 2.0 3.0 0.00 0.00 0.00 75 1006.8
20260504011840 42 164 2.0 3.0 0.00 0.00 0.00 75 1006.8
20260504011337 42 164 1.0 3.0 0.00 0.00 0.00 75 1006.8
20260504011105 42 164 2.0 4.0 0.00 0.00 0.00 75 1006.9
20260504010331 42 164 2.0 4.0 0.00 0.00 0.00 75 1006.9
20260504005830 42 165 2.0 6.0 0.00 0.00 0.00 75 1007.0
20260504005330 43 165 2.0 6.0 0.00 0.00 0.00 74 1007.1
20260504004831 43 158 1.0 4.0 0.00 0.00 0.00 74 1007.2
20260504004331 43 158 2.0 4.0 0.00 0.00 0.00 74 1007.2
20260504003831 43 155 2.0 4.0 0.00 0.00 0.00 75 1007.3
20260504003330 43 155 3.0 4.0 0.00 0.00 0.00 75 1007.4
20260504002831 43 165 1.0 3.0 0.00 0.00 0.00 75 1007.3
20260504002330 43 165 1.0 3.0 0.00 0.00 0.00 75 1007.4
20260504001830 43 165 1.0 3.0 0.00 0.00 0.00 76 1007.5
20260504001331 43 165 1.0 2.0 0.00 0.00 0.00 76 1007.5
20260504001056 43 165 0.0 0.0 0.00 0.00 0.00 76 1007.5
20260504000332 43 165 0.0 1.0 0.00 0.00 0.00 77 1007.6
20260503235831 43 165 0.0 3.0 0.00 0.00 0.00 77 1007.6
20260503235331 43 165 2.0 3.0 0.00 0.00 0.00 76 1007.6
20260503235048 43 165 1.0 2.0 0.00 0.00 0.00 76 1007.7